Time,TemperatureF,DewpointF,PressureIn,WindDirection,WindDirectionDegrees,WindSpeedMPH,WindSpeedGustMPH,Humidity,HourlyPrecipIn,Conditions,Clouds,dailyrainin,SoftwareType,DateUTC
2013-02-04 00:02:00,29.0,19.0,-100.00,West,260,11.0,16.0,67,-99.99,,,-99.99,,2013-02-04 05:02:00,
2013-02-04 00:11:00,29.0,20.0,-100.00,West,270,11.0,13.0,68,-99.99,,,-99.99,,2013-02-04 05:11:00,
2013-02-04 00:21:00,29.0,20.0,-100.00,West,270,11.0,13.0,68,-99.99,,,-99.99,,2013-02-04 05:21:00,
2013-02-04 00:33:00,29.0,20.0,-100.00,West,270,11.0,13.0,68,-99.99,,,-99.99,,2013-02-04 05:33:00,
2013-02-04 00:41:00,29.0,20.0,-100.00,West,270,11.0,13.0,68,-99.99,,,-99.99,,2013-02-04 05:41:00,
2013-02-04 00:51:00,29.0,21.0,-100.00,West,270,11.0,13.0,70,-99.99,,,-99.99,,2013-02-04 05:51:00,
2013-02-04 01:01:00,29.0,21.0,-100.00,West,270,11.0,13.0,70,-99.99,,,-99.99,,2013-02-04 06:01:00,
2013-02-04 01:11:00,29.0,22.0,-100.00,West,260,13.0,20.0,71,-99.99,,,-99.99,,2013-02-04 06:11:00,
2013-02-04 01:21:00,29.0,22.0,-100.00,West,260,13.0,20.0,71,-99.99,,,-99.99,,2013-02-04 06:21:00,
2013-02-04 01:31:00,29.0,22.0,-100.00,West,260,13.0,20.0,71,-99.99,,,-99.99,,2013-02-04 06:31:00,
2013-02-04 01:41:00,29.0,22.0,-100.00,West,260,13.0,18.0,73,-99.99,,,-99.99,,2013-02-04 06:41:00,
2013-02-04 01:51:00,29.0,22.0,-100.00,West,260,13.0,18.0,73,-99.99,,,-99.99,,2013-02-04 06:51:00,
2013-02-04 02:01:00,29.0,22.0,-100.00,West,260,13.0,18.0,73,-99.99,,,-99.99,,2013-02-04 07:01:00,
2013-02-04 02:11:00,29.0,22.0,-100.00,West,260,13.0,18.0,73,-99.99,,,-99.99,,2013-02-04 07:11:00,
2013-02-04 02:21:00,29.0,22.0,-100.00,West,270,18.0,22.0,75,-99.99,,,-99.99,,2013-02-04 07:21:00,
2013-02-04 02:31:00,29.0,22.0,-100.00,West,270,18.0,22.0,75,-99.99,,,-99.99,,2013-02-04 07:31:00,
2013-02-04 02:41:00,29.0,22.0,-100.00,West,270,18.0,22.0,75,-99.99,,,-99.99,,2013-02-04 07:41:00,
2013-02-04 02:51:00,29.0,21.0,-100.00,West,270,20.0,27.0,73,-99.99,,,-99.99,,2013-02-04 07:51:00,
2013-02-04 03:01:00,29.0,21.0,-100.00,West,270,20.0,27.0,73,-99.99,,,-99.99,,2013-02-04 08:01:00,
2013-02-04 03:11:00,29.0,20.0,-100.00,West,280,20.0,27.0,67,-99.99,,,-99.99,,2013-02-04 08:11:00,
2013-02-04 03:21:00,29.0,20.0,-100.00,West,280,20.0,27.0,67,-99.99,,,-99.99,,2013-02-04 08:21:00,
2013-02-04 03:31:00,29.0,20.0,-100.00,West,280,20.0,27.0,67,-99.99,,,-99.99,,2013-02-04 08:31:00,
2013-02-04 03:41:00,29.0,20.0,-100.00,West,280,20.0,27.0,67,-99.99,,,-99.99,,2013-02-04 08:41:00,
2013-02-04 03:52:00,29.0,18.0,-100.00,WNW,290,22.0,29.0,63,-99.99,,,-99.99,,2013-02-04 08:52:00,
2013-02-04 04:01:00,29.0,18.0,-100.00,WNW,290,22.0,29.0,63,-99.99,,,-99.99,,2013-02-04 09:01:00,
2013-02-04 04:11:00,29.0,18.0,-100.00,WNW,290,22.0,29.0,63,-99.99,,,-99.99,,2013-02-04 09:11:00,
2013-02-04 04:21:00,28.0,17.0,-100.00,West,270,22.0,27.0,62,-99.99,,,-99.99,,2013-02-04 09:21:00,
2013-02-04 04:31:00,28.0,17.0,-100.00,West,270,22.0,27.0,62,-99.99,,,-99.99,,2013-02-04 09:31:00,
2013-02-04 04:41:00,28.0,17.0,-100.00,West,270,22.0,27.0,62,-99.99,,,-99.99,,2013-02-04 09:41:00,
2013-02-04 04:51:00,28.0,17.0,-100.00,WNW,300,22.0,27.0,62,-99.99,,,-99.99,,2013-02-04 09:51:00,
2013-02-04 05:01:00,28.0,17.0,-100.00,WNW,300,22.0,27.0,62,-99.99,,,-99.99,,2013-02-04 10:01:00,
2013-02-04 05:11:00,28.0,17.0,-100.00,WNW,300,22.0,27.0,62,-99.99,,,-99.99,,2013-02-04 10:11:00,
2013-02-04 05:21:00,28.0,16.0,-100.00,WNW,290,22.0,29.0,60,-99.99,,,-99.99,,2013-02-04 10:21:00,
2013-02-04 05:32:00,28.0,16.0,-100.00,WNW,290,22.0,29.0,60,-99.99,,,-99.99,,2013-02-04 10:32:00,
2013-02-04 05:41:00,28.0,16.0,-100.00,WNW,290,22.0,29.0,60,-99.99,,,-99.99,,2013-02-04 10:41:00,
2013-02-04 05:51:00,27.0,15.0,-100.00,WNW,290,20.0,29.0,59,-99.99,,,-99.99,,2013-02-04 10:51:00,
2013-02-04 06:01:00,27.0,15.0,-100.00,WNW,290,20.0,29.0,59,-99.99,,,-99.99,,2013-02-04 11:01:00,
2013-02-04 06:11:00,27.0,15.0,-100.00,WNW,290,20.0,29.0,59,-99.99,,,-99.99,,2013-02-04 11:11:00,
2013-02-04 06:22:00,27.0,15.0,-100.00,WNW,290,22.0,27.0,60,-99.99,,,-99.99,,2013-02-04 11:22:00,
2013-02-04 06:32:00,27.0,15.0,-100.00,WNW,290,22.0,27.0,60,-99.99,,,-99.99,,2013-02-04 11:32:00,
2013-02-04 06:41:00,27.0,15.0,-100.00,WNW,290,22.0,27.0,60,-99.99,,,-99.99,,2013-02-04 11:41:00,
2013-02-04 06:52:00,26.0,13.0,-100.00,WNW,290,22.0,27.0,57,-99.99,,,-99.99,,2013-02-04 11:52:00,
2013-02-04 07:02:00,26.0,13.0,-100.00,WNW,290,22.0,27.0,57,-99.99,,,-99.99,,2013-02-04 12:02:00,
2013-02-04 07:12:00,26.0,13.0,-100.00,WNW,290,22.0,27.0,57,-99.99,,,-99.99,,2013-02-04 12:12:00,
2013-02-04 07:21:00,26.0,12.0,-100.00,WNW,290,20.0,25.0,55,-99.99,,,-99.99,,2013-02-04 12:21:00,
2013-02-04 07:32:00,26.0,12.0,-100.00,WNW,290,20.0,25.0,55,-99.99,,,-99.99,,2013-02-04 12:32:00,
2013-02-04 07:41:00,26.0,12.0,-100.00,WNW,290,20.0,25.0,55,-99.99,,,-99.99,,2013-02-04 12:41:00,
2013-02-04 07:52:00,26.0,12.0,-100.00,WNW,290,20.0,27.0,56,-99.99,,,-99.99,,2013-02-04 12:52:00,
2013-02-04 08:01:00,26.0,12.0,-100.00,WNW,290,20.0,27.0,56,-99.99,,,-99.99,,2013-02-04 13:01:00,
2013-02-04 08:11:00,26.0,12.0,-100.00,WNW,290,20.0,25.0,55,-99.99,,,-99.99,,2013-02-04 13:11:00,
2013-02-04 08:21:00,26.0,12.0,-100.00,WNW,290,20.0,25.0,55,-99.99,,,-99.99,,2013-02-04 13:21:00,
2013-02-04 08:32:00,26.0,12.0,-100.00,WNW,290,20.0,25.0,55,-99.99,,,-99.99,,2013-02-04 13:32:00,
2013-02-04 08:41:00,26.0,12.0,-100.00,WNW,290,20.0,25.0,55,-99.99,,,-99.99,,2013-02-04 13:41:00,
2013-02-04 08:51:00,26.0,11.0,-100.00,WNW,290,18.0,22.0,53,-99.99,,,-99.99,,2013-02-04 13:51:00,
2013-02-04 09:02:00,26.0,11.0,-100.00,WNW,290,18.0,22.0,53,-99.99,,,-99.99,,2013-02-04 14:02:00,
2013-02-04 09:11:00,26.0,11.0,-100.00,West,270,16.0,25.0,53,-99.99,,,-99.99,,2013-02-04 14:11:00,
2013-02-04 09:21:00,26.0,11.0,-100.00,West,270,16.0,25.0,53,-99.99,,,-99.99,,2013-02-04 14:21:00,
2013-02-04 09:32:00,26.0,11.0,-100.00,West,270,16.0,25.0,53,-99.99,,,-99.99,,2013-02-04 14:32:00,
2013-02-04 09:41:00,26.0,11.0,-100.00,West,270,16.0,25.0,53,-99.99,,,-99.99,,2013-02-04 14:41:00,
2013-02-04 09:52:00,26.0,11.0,-100.00,West,280,18.0,25.0,52,-99.99,,,-99.99,,2013-02-04 14:52:00,
2013-02-04 10:02:00,26.0,11.0,-100.00,West,280,18.0,25.0,52,-99.99,,,-99.99,,2013-02-04 15:02:00,
2013-02-04 10:11:00,27.0,11.0,-100.00,West,280,18.0,25.0,50,-99.99,,,-99.99,,2013-02-04 15:11:00,
2013-02-04 10:22:00,27.0,11.0,-100.00,West,280,18.0,25.0,50,-99.99,,,-99.99,,2013-02-04 15:22:00,
2013-02-04 10:33:00,27.0,11.0,-100.00,West,280,18.0,25.0,50,-99.99,,,-99.99,,2013-02-04 15:33:00,
2013-02-04 10:42:00,27.0,11.0,-100.00,West,280,18.0,25.0,50,-99.99,,,-99.99,,2013-02-04 15:42:00,
2013-02-04 10:52:00,27.0,10.0,-100.00,WNW,290,18.0,25.0,48,-99.99,,,-99.99,,2013-02-04 15:52:00,
2013-02-04 11:01:00,27.0,10.0,-100.00,WNW,290,18.0,25.0,48,-99.99,,,-99.99,,2013-02-04 16:01:00,
2013-02-04 11:11:00,27.0,10.0,-100.00,WNW,290,18.0,25.0,48,-99.99,,,-99.99,,2013-02-04 16:11:00,
2013-02-04 11:21:00,27.0,11.0,-100.00,West,270,20.0,27.0,49,-99.99,,,-99.99,,2013-02-04 16:21:00,
2013-02-04 11:32:00,27.0,11.0,-100.00,West,270,20.0,27.0,49,-99.99,,,-99.99,,2013-02-04 16:32:00,
2013-02-04 11:42:00,27.0,11.0,-100.00,West,270,20.0,27.0,49,-99.99,,,-99.99,,2013-02-04 16:42:00,
2013-02-04 11:51:00,28.0,10.0,-100.00,WNW,290,18.0,22.0,46,-99.99,,,-99.99,,2013-02-04 16:51:00,
2013-02-04 12:01:00,28.0,10.0,-100.00,WNW,290,18.0,22.0,46,-99.99,,,-99.99,,2013-02-04 17:01:00,
2013-02-04 12:11:00,28.0,10.0,-100.00,WNW,290,18.0,22.0,46,-99.99,,,-99.99,,2013-02-04 17:11:00,
2013-02-04 12:21:00,28.0,10.0,-100.00,West,280,18.0,22.0,46,-99.99,,,-99.99,,2013-02-04 17:21:00,
2013-02-04 12:31:00,28.0,10.0,-100.00,West,280,18.0,22.0,46,-99.99,,,-99.99,,2013-02-04 17:31:00,
2013-02-04 12:41:00,28.0,10.0,-100.00,West,280,18.0,22.0,46,-99.99,,,-99.99,,2013-02-04 17:41:00,
2013-02-04 12:51:00,29.0,10.0,-100.00,West,260,16.0,25.0,44,-99.99,,,-99.99,,2013-02-04 17:51:00,
2013-02-04 13:02:00,29.0,10.0,-100.00,West,260,16.0,25.0,44,-99.99,,,-99.99,,2013-02-04 18:02:00,
2013-02-04 13:11:00,29.0,11.0,-100.00,West,260,18.0,25.0,45,-99.99,,,-99.99,,2013-02-04 18:11:00,
2013-02-04 13:21:00,29.0,11.0,-100.00,West,260,18.0,25.0,45,-99.99,,,-99.99,,2013-02-04 18:21:00,
2013-02-04 13:31:00,29.0,11.0,-100.00,West,260,18.0,25.0,45,-99.99,,,-99.99,,2013-02-04 18:31:00,
2013-02-04 13:41:00,29.0,11.0,-100.00,West,260,18.0,25.0,45,-99.99,,,-99.99,,2013-02-04 18:41:00,
2013-02-04 13:52:00,29.0,10.0,-100.00,West,260,20.0,25.0,44,-99.99,,,-99.99,,2013-02-04 18:52:00,
2013-02-04 14:00:00,30.0,13.0,-100.00,West,260,22.0,29.0,47,-99.99,,,-99.99,,2013-02-04 19:00:00,
2013-02-04 14:01:00,29.0,10.0,-100.00,West,260,20.0,25.0,44,-99.99,,,-99.99,,2013-02-04 19:01:00,
2013-02-04 14:11:00,29.0,10.0,-100.00,West,260,20.0,25.0,44,-99.99,,,-99.99,,2013-02-04 19:11:00,
2013-02-04 14:21:00,30.0,13.0,-100.00,WSW,250,20.0,27.0,48,-99.99,,,-99.99,,2013-02-04 19:21:00,
2013-02-04 14:31:00,30.0,13.0,-100.00,WSW,250,20.0,27.0,48,-99.99,,,-99.99,,2013-02-04 19:31:00,
2013-02-04 14:41:00,30.0,13.0,-100.00,West,260,22.0,29.0,47,-99.99,,,-99.99,,2013-02-04 19:41:00,
2013-02-04 14:51:00,30.0,13.0,-100.00,West,260,22.0,29.0,47,-99.99,,,-99.99,,2013-02-04 19:51:00,
2013-02-04 15:00:00,30.0,11.0,-100.00,West,280,20.0,27.0,45,-99.99,,,-99.99,,2013-02-04 20:00:00,
2013-02-04 15:31:00,30.0,13.0,-100.00,West,270,20.0,29.0,48,-99.99,,,-99.99,,2013-02-04 20:31:00,
2013-02-04 15:42:00,30.0,13.0,-100.00,West,270,20.0,29.0,48,-99.99,,,-99.99,,2013-02-04 20:42:00,
2013-02-04 15:52:00,30.0,11.0,-100.00,West,280,20.0,27.0,45,-99.99,,,-99.99,,2013-02-04 20:52:00,
2013-02-04 16:00:00,30.0,11.0,-100.00,West,280,20.0,25.0,43,-99.99,,,-99.99,,2013-02-04 21:00:00,
2013-02-04 16:21:00,30.0,11.0,-100.00,West,270,20.0,25.0,44,-99.99,,,-99.99,,2013-02-04 21:21:00,
2013-02-04 16:31:00,30.0,11.0,-100.00,West,270,20.0,25.0,44,-99.99,,,-99.99,,2013-02-04 21:31:00,
2013-02-04 16:42:00,30.0,11.0,-100.00,West,270,20.0,25.0,44,-99.99,,,-99.99,,2013-02-04 21:42:00,
2013-02-04 16:51:00,30.0,11.0,-100.00,West,280,20.0,25.0,43,-99.99,,,-99.99,,2013-02-04 21:51:00,
2013-02-04 17:21:00,30.0,11.0,-100.00,West,270,16.0,20.0,43,-99.99,,,-99.99,,2013-02-04 22:21:00,
2013-02-04 17:32:00,30.0,11.0,-100.00,West,270,16.0,20.0,43,-99.99,,,-99.99,,2013-02-04 22:32:00,
2013-02-04 17:41:00,31.0,11.0,-100.00,West,260,18.0,22.0,43,-99.99,,,-99.99,,2013-02-04 22:41:00,
2013-02-04 17:51:00,31.0,11.0,-100.00,West,260,18.0,22.0,43,-99.99,,,-99.99,,2013-02-04 22:51:00,
2013-02-04 18:01:00,31.0,11.0,-100.00,West,260,18.0,22.0,43,-99.99,,,-99.99,,2013-02-04 23:01:00,
2013-02-04 18:11:00,31.0,11.0,-100.00,West,260,18.0,22.0,43,-99.99,,,-99.99,,2013-02-04 23:11:00,
2013-02-04 18:21:00,31.0,12.0,-100.00,West,260,18.0,25.0,44,-99.99,,,-99.99,,2013-02-04 23:21:00,
2013-02-04 18:31:00,31.0,12.0,-100.00,West,260,18.0,25.0,44,-99.99,,,-99.99,,2013-02-04 23:31:00,
2013-02-04 18:41:00,31.0,12.0,-100.00,West,260,18.0,25.0,44,-99.99,,,-99.99,,2013-02-04 23:41:00,
2013-02-04 18:52:00,30.0,13.0,-100.00,West,260,18.0,22.0,47,-99.99,,,-99.99,,2013-02-04 23:52:00,
2013-02-04 19:01:00,30.0,13.0,-100.00,West,260,18.0,22.0,47,-99.99,,,-99.99,,2013-02-05 00:01:00,
2013-02-04 19:11:00,30.0,13.0,-100.00,West,260,18.0,22.0,47,-99.99,,,-99.99,,2013-02-05 00:11:00,
2013-02-04 19:21:00,30.0,12.0,-100.00,West,260,18.0,22.0,46,-99.99,,,-99.99,,2013-02-05 00:21:00,
2013-02-04 19:31:00,30.0,12.0,-100.00,West,260,18.0,22.0,46,-99.99,,,-99.99,,2013-02-05 00:31:00,
2013-02-04 19:41:00,30.0,12.0,-100.00,West,260,18.0,22.0,46,-99.99,,,-99.99,,2013-02-05 00:41:00,
2013-02-04 19:51:00,30.0,12.0,-100.00,West,260,18.0,22.0,46,-99.99,,,-99.99,,2013-02-05 00:51:00,
2013-02-04 20:01:00,30.0,12.0,-100.00,West,260,18.0,22.0,46,-99.99,,,-99.99,,2013-02-05 01:01:00,
2013-02-04 20:11:00,30.0,11.0,-100.00,West,260,16.0,20.0,45,-99.99,,,-99.99,,2013-02-05 01:11:00,
2013-02-04 20:21:00,30.0,11.0,-100.00,West,260,16.0,20.0,45,-99.99,,,-99.99,,2013-02-05 01:21:00,
2013-02-04 20:32:00,30.0,11.0,-100.00,West,260,16.0,20.0,45,-99.99,,,-99.99,,2013-02-05 01:32:00,
2013-02-04 20:41:00,30.0,13.0,-100.00,West,260,16.0,20.0,47,-99.99,,,-99.99,,2013-02-05 01:41:00,
2013-02-04 20:51:00,30.0,13.0,-100.00,West,260,16.0,20.0,47,-99.99,,,-99.99,,2013-02-05 01:51:00,
2013-02-04 21:01:00,30.0,13.0,-100.00,West,260,16.0,20.0,47,-99.99,,,-99.99,,2013-02-05 02:01:00,
2013-02-04 21:11:00,30.0,13.0,-100.00,West,260,16.0,20.0,47,-99.99,,,-99.99,,2013-02-05 02:11:00,
2013-02-04 21:21:00,30.0,12.0,-100.00,West,260,13.0,18.0,47,-99.99,,,-99.99,,2013-02-05 02:21:00,
2013-02-04 21:31:00,30.0,12.0,-100.00,West,260,13.0,18.0,47,-99.99,,,-99.99,,2013-02-05 02:31:00,
2013-02-04 21:41:00,30.0,11.0,-100.00,West,260,13.0,18.0,45,-99.99,,,-99.99,,2013-02-05 02:41:00,
2013-02-04 21:52:00,30.0,11.0,-100.00,West,260,13.0,18.0,45,-99.99,,,-99.99,,2013-02-05 02:52:00,
2013-02-04 22:01:00,30.0,11.0,-100.00,West,260,13.0,18.0,45,-99.99,,,-99.99,,2013-02-05 03:01:00,
2013-02-04 22:11:00,30.0,11.0,-100.00,West,260,13.0,18.0,45,-99.99,,,-99.99,,2013-02-05 03:11:00,
2013-02-04 22:21:00,30.0,13.0,-100.00,WSW,250,13.0,18.0,48,-99.99,,,-99.99,,2013-02-05 03:21:00,
2013-02-04 22:31:00,30.0,13.0,-100.00,WSW,250,13.0,18.0,48,-99.99,,,-99.99,,2013-02-05 03:31:00,
2013-02-04 22:41:00,30.0,13.0,-100.00,WSW,250,13.0,18.0,48,-99.99,,,-99.99,,2013-02-05 03:41:00,
2013-02-04 22:51:00,30.0,13.0,-100.00,WSW,250,13.0,18.0,47,-99.99,,,-99.99,,2013-02-05 03:51:00,
2013-02-04 23:01:00,30.0,13.0,-100.00,WSW,250,13.0,18.0,47,-99.99,,,-99.99,,2013-02-05 04:01:00,
2013-02-04 23:11:00,30.0,13.0,-100.00,WSW,250,13.0,18.0,47,-99.99,,,-99.99,,2013-02-05 04:11:00,
2013-02-04 23:21:00,30.0,13.0,-100.00,West,260,11.0,16.0,48,-99.99,,,-99.99,,2013-02-05 04:21:00,
2013-02-04 23:31:00,30.0,13.0,-100.00,West,260,11.0,16.0,48,-99.99,,,-99.99,,2013-02-05 04:31:00,
2013-02-04 23:41:00,30.0,13.0,-100.00,West,260,11.0,13.0,48,-99.99,,,-99.99,,2013-02-05 04:41:00,
2013-02-04 23:51:00,30.0,13.0,-100.00,West,260,11.0,13.0,48,-99.99,,,-99.99,,2013-02-05 04:51:00,